TimeCDT,TemperatureF,Dew PointF,Humidity,Sea Level PressureIn,VisibilityMPH,Wind Direction,Wind SpeedMPH,Gust SpeedMPH,PrecipitationIn,Events,Conditions,WindDirDegrees,DateUTC
12:15 AM,64.4,55.4,73,30.10,10.0,SE,5.8,-,N/A,,Clear,140,2013-09-04 05:15:00
12:35 AM,64.4,53.6,68,30.10,10.0,SE,5.8,-,N/A,,Clear,140,2013-09-04 05:35:00
12:55 AM,62.6,53.6,72,30.10,10.0,SSE,5.8,-,N/A,,Clear,150,2013-09-04 05:55:00
1:15 AM,62.6,53.6,72,30.10,10.0,SE,4.6,-,N/A,,Clear,140,2013-09-04 06:15:00
1:35 AM,62.6,53.6,72,30.10,10.0,SSE,5.8,-,N/A,,Clear,150,2013-09-04 06:35:00
1:55 AM,64.4,53.6,68,30.10,10.0,SSE,6.9,-,N/A,,Clear,150,2013-09-04 06:55:00
2:15 AM,62.6,53.6,72,30.10,10.0,SSE,5.8,-,N/A,,Clear,150,2013-09-04 07:15:00
2:35 AM,62.6,53.6,72,30.10,10.0,SSE,4.6,-,N/A,,Clear,150,2013-09-04 07:35:00
2:55 AM,62.6,53.6,72,30.11,10.0,SSE,4.6,-,N/A,,Clear,150,2013-09-04 07:55:00
3:15 AM,62.6,53.6,72,30.11,10.0,SSE,4.6,-,N/A,,Clear,150,2013-09-04 08:15:00
3:35 AM,60.8,53.6,77,30.11,10.0,SE,6.9,-,N/A,,Clear,140,2013-09-04 08:35:00
3:55 AM,60.8,53.6,77,30.11,10.0,SE,6.9,-,N/A,,Clear,130,2013-09-04 08:55:00
4:15 AM,60.8,53.6,77,30.11,10.0,SE,6.9,-,N/A,,Clear,130,2013-09-04 09:15:00
4:35 AM,60.8,53.6,77,30.11,10.0,ESE,6.9,-,N/A,,Clear,120,2013-09-04 09:35:00
4:55 AM,62.6,53.6,72,30.12,10.0,ESE,6.9,-,N/A,,Clear,110,2013-09-04 09:55:00
5:15 AM,60.8,53.6,77,30.12,10.0,SE,6.9,-,N/A,,Clear,130,2013-09-04 10:15:00
5:35 AM,60.8,53.6,77,-9999,10.0,SSE,6.9,-,N/A,,Clear,150,2013-09-04 10:35:00
5:55 AM,60.8,53.6,77,30.12,10.0,SSE,8.1,-,N/A,,Clear,150,2013-09-04 10:55:00
6:15 AM,62.6,53.6,72,30.12,10.0,SSE,6.9,-,N/A,,Clear,160,2013-09-04 11:15:00
6:35 AM,60.8,53.6,77,30.14,10.0,SSE,4.6,-,N/A,,Clear,160,2013-09-04 11:35:00
6:55 AM,60.8,53.6,77,30.15,10.0,South,5.8,-,N/A,,Clear,170,2013-09-04 11:55:00
7:15 AM,60.8,53.6,77,30.16,10.0,South,3.5,-,N/A,,Clear,180,2013-09-04 12:15:00
7:35 AM,62.6,53.6,72,30.16,10.0,South,3.5,-,N/A,,Clear,170,2013-09-04 12:35:00
7:55 AM,64.4,55.4,73,30.17,10.0,South,4.6,-,N/A,,Clear,190,2013-09-04 12:55:00
8:15 AM,66.2,55.4,68,30.17,10.0,South,3.5,-,N/A,,Clear,190,2013-09-04 13:15:00
8:35 AM,68.0,57.2,68,30.18,10.0,SSW,3.5,-,N/A,,Clear,210,2013-09-04 13:35:00
8:55 AM,69.8,57.2,64,30.18,10.0,South,4.6,-,N/A,,Clear,180,2013-09-04 13:55:00
9:15 AM,73.4,57.2,57,30.18,10.0,South,5.8,-,N/A,,Clear,190,2013-09-04 14:15:00
9:35 AM,73.4,57.2,57,30.19,10.0,SSE,5.8,-,N/A,,Clear,160,2013-09-04 14:35:00
9:55 AM,75.2,59.0,57,30.18,10.0,SSE,4.6,-,N/A,,Clear,150,2013-09-04 14:55:00
10:15 AM,78.8,59.0,51,30.19,10.0,South,5.8,-,N/A,,Clear,170,2013-09-04 15:15:00
10:35 AM,78.8,57.2,47,30.19,10.0,South,5.8,-,N/A,,Clear,190,2013-09-04 15:35:00
10:55 AM,78.8,57.2,47,30.19,10.0,SSW,5.8,-,N/A,,Clear,200,2013-09-04 15:55:00
11:15 AM,80.6,57.2,45,30.19,10.0,South,3.5,-,N/A,,Clear,170,2013-09-04 16:15:00
11:35 AM,80.6,57.2,45,30.19,10.0,Calm,Calm,-,N/A,,Clear,0,2013-09-04 16:35:00
11:55 AM,80.6,55.4,42,30.18,10.0,Calm,Calm,-,N/A,,Clear,0,2013-09-04 16:55:00
12:15 PM,82.4,55.4,39,30.18,10.0,Calm,Calm,-,N/A,,Clear,0,2013-09-04 17:15:00
12:35 PM,82.4,55.4,39,30.18,10.0,Calm,Calm,-,N/A,,Clear,0,2013-09-04 17:35:00
12:55 PM,82.4,55.4,39,30.17,10.0,ESE,4.6,-,N/A,,Clear,110,2013-09-04 17:55:00
1:15 PM,84.2,55.4,37,30.17,10.0,ESE,4.6,-,N/A,,Clear,120,2013-09-04 18:15:00
1:35 PM,84.2,55.4,37,30.16,10.0,ESE,3.5,-,N/A,,Clear,120,2013-09-04 18:35:00
1:55 PM,86.0,55.4,35,30.16,10.0,ESE,6.9,-,N/A,,Clear,110,2013-09-04 18:55:00
2:15 PM,87.8,55.4,33,30.15,10.0,ESE,8.1,-,N/A,,Clear,120,2013-09-04 19:15:00
2:35 PM,87.8,53.6,31,30.14,10.0,SE,8.1,-,N/A,,Clear,130,2013-09-04 19:35:00
2:55 PM,87.8,53.6,31,30.14,10.0,East,8.1,-,N/A,,Clear,100,2013-09-04 19:55:00
3:15 PM,87.8,53.6,31,30.13,10.0,ESE,11.5,17.3,N/A,,Clear,120,2013-09-04 20:15:00
3:35 PM,87.8,55.4,33,30.12,10.0,ESE,9.2,-,N/A,,Clear,120,2013-09-04 20:35:00
3:55 PM,87.8,55.4,33,30.12,10.0,ESE,9.2,-,N/A,,Clear,120,2013-09-04 20:55:00
4:15 PM,87.8,55.4,33,30.12,10.0,ESE,8.1,-,N/A,,Clear,110,2013-09-04 21:15:00
4:35 PM,87.8,57.2,35,30.11,10.0,SE,8.1,-,N/A,,Clear,130,2013-09-04 21:35:00
4:55 PM,87.8,55.4,33,30.10,10.0,South,9.2,-,N/A,,Clear,170,2013-09-04 21:55:00
5:15 PM,87.8,53.6,31,30.10,10.0,SSE,10.4,-,N/A,,Clear,150,2013-09-04 22:15:00
5:35 PM,87.8,53.6,31,30.10,10.0,SE,10.4,-,N/A,,Clear,130,2013-09-04 22:35:00
5:55 PM,87.8,53.6,31,30.10,10.0,SE,9.2,-,N/A,,Clear,140,2013-09-04 22:55:00
6:15 PM,86.0,53.6,33,30.10,10.0,SE,10.4,-,N/A,,Clear,140,2013-09-04 23:15:00
6:35 PM,84.2,55.4,37,30.10,10.0,SE,8.1,-,N/A,,Clear,130,2013-09-04 23:35:00
6:55 PM,82.4,55.4,39,30.10,10.0,ESE,6.9,-,N/A,,Clear,120,2013-09-04 23:55:00
7:15 PM,80.6,57.2,45,30.10,10.0,ESE,5.8,-,N/A,,Clear,110,2013-09-05 00:15:00
7:35 PM,80.6,57.2,45,30.10,10.0,ESE,6.9,-,N/A,,Clear,120,2013-09-05 00:35:00
7:55 PM,78.8,57.2,47,30.11,10.0,ESE,6.9,-,N/A,,Clear,120,2013-09-05 00:55:00
8:15 PM,75.2,57.2,53,30.10,10.0,SE,6.9,-,N/A,,Clear,130,2013-09-05 01:15:00
8:35 PM,75.2,57.2,53,30.11,10.0,ESE,6.9,-,N/A,,Clear,120,2013-09-05 01:35:00
8:55 PM,75.2,57.2,53,30.12,10.0,ESE,6.9,-,N/A,,Clear,120,2013-09-05 01:55:00
9:15 PM,75.2,57.2,53,30.12,10.0,ESE,6.9,-,N/A,,Clear,120,2013-09-05 02:15:00
9:35 PM,75.2,57.2,53,30.13,10.0,ESE,6.9,-,N/A,,Clear,110,2013-09-05 02:35:00
9:55 PM,73.4,57.2,57,30.13,10.0,ESE,6.9,-,N/A,,Clear,110,2013-09-05 02:55:00
10:15 PM,73.4,57.2,57,30.14,10.0,ESE,6.9,-,N/A,,Clear,110,2013-09-05 03:15:00
10:35 PM,71.6,57.2,60,30.14,10.0,ESE,6.9,-,N/A,,Clear,120,2013-09-05 03:35:00
10:55 PM,71.6,57.2,60,30.15,10.0,ESE,6.9,-,N/A,,Clear,120,2013-09-05 03:55:00
11:15 PM,71.6,57.2,60,30.15,10.0,ESE,6.9,-,N/A,,Clear,120,2013-09-05 04:15:00
11:35 PM,69.8,57.2,64,-9999,10.0,ESE,5.8,-,N/A,,Clear,120,2013-09-05 04:35:00
11:55 PM,69.8,57.2,64,30.16,10.0,SE,5.8,-,N/A,,Clear,130,2013-09-05 04:55:00